EW1994 Weather Reports


Display with metric or nautical units.
time (UTC)temp
F
wind
direction
speed
MPH
gust
MPH
rain 1hr
in
rain 24hr
in
rain mn
in
humidity
%
barometer
mb
20260509124522 44 138 0.0 0.0 0.00 0.00 0.00 91 1022.8
20260509123025 44 138 0.0 0.0 0.00 0.00 0.00 91 1022.8
20260509121536 45 138 0.0 0.0 0.00 0.00 0.00 90 1022.9
20260509120034 45 138 0.0 0.0 0.00 0.00 0.00 90 1022.9
20260509114513 45 138 0.0 0.0 0.00 0.00 0.00 90 1023.0
20260509113018 46 138 0.0 0.0 0.00 0.00 0.00 90 1023.1
20260509111522 46 138 0.0 0.0 0.00 0.00 0.00 90 1023.2
20260509110004 46 138 0.0 0.0 0.00 0.00 0.00 90 1023.2
20260509104508 46 138 0.0 0.0 0.00 0.00 0.00 90 1023.4
20260509103016 47 138 0.0 0.0 0.00 0.00 0.00 90 1023.5
20260509101523 46 138 0.0 0.0 0.00 0.00 0.00 90 1023.5
20260509100029 46 138 0.0 0.0 0.00 0.00 0.00 90 1023.6
20260509094508 46 138 0.0 0.0 0.00 0.00 0.00 89 1023.6
20260509093014 46 138 0.0 0.0 0.00 0.00 0.00 89 1023.6
20260509091520 46 138 0.0 0.0 0.00 0.00 0.00 89 1023.7
20260509090021 46 138 0.0 0.0 0.00 0.00 0.00 89 1023.7
20260509084534 47 138 0.0 0.0 0.00 0.00 0.00 88 1023.7
20260509083010 47 138 0.0 0.0 0.00 0.00 0.00 88 1023.8
20260509081516 47 138 0.0 0.0 0.00 0.00 0.00 87 1023.7
20260509080025 48 138 0.0 0.0 0.00 0.00 0.00 86 1023.7
20260509074523 48 138 0.0 0.0 0.00 0.00 0.00 86 1023.6
20260509073026 49 138 0.0 0.0 0.00 0.00 0.00 85 1023.5
20260509071512 49 138 0.0 0.0 0.00 0.00 0.00 84 1023.4
20260509070018 50 138 0.0 0.0 0.00 0.00 0.00 84 1023.2
20260509064522 50 138 0.0 0.0 0.00 0.00 0.00 84 1023.1
20260509063024 51 138 0.0 0.0 0.00 0.00 0.00 84 1023.2
20260509061531 51 138 0.0 0.0 0.00 0.00 0.00 84 1023.1
20260509060013 51 138 0.0 0.0 0.00 0.00 0.00 84 1023.0
20260509054517 51 138 0.0 0.0 0.00 0.00 0.00 84 1023.0
20260509053022 51 138 0.0 0.0 0.00 0.00 0.00 84 1023.0
20260509051527 51 138 0.0 0.0 0.00 0.00 0.00 83 1022.9
20260509050030 51 138 0.0 0.0 0.00 0.00 0.00 83 1022.9
20260509044513 51 138 0.0 0.0 0.00 0.00 0.00 82 1022.9
20260509043020 51 138 0.0 0.0 0.00 0.00 0.00 81 1022.8
20260509041534 52 138 0.0 0.0 0.00 0.00 0.00 79 1022.7
20260509040027 52 138 0.0 0.0 0.00 0.00 0.00 78 1022.5
20260509034530 54 138 0.0 0.0 0.00 0.00 0.00 76 1022.3
20260509033015 55 138 0.0 0.0 0.00 0.00 0.00 72 1022.3
20260509031522 56 138 0.0 0.0 0.00 0.00 0.00 71 1022.2
20260509030024 57 138 0.0 0.0 0.00 0.00 0.00 69 1022.1
20260509024526 58 138 0.0 1.0 0.00 0.00 0.00 63 1022.1
20260509023030 59 138 0.0 3.0 0.00 0.00 0.00 60 1021.9
20260509021522 60 146 0.0 4.0 0.00 0.00 0.00 59 1021.9
20260509020025 60 272 0.0 5.0 0.00 0.00 0.00 59 1021.9
20260509014524 60 157 0.0 0.0 0.00 0.00 0.00 57 1021.9
20260509013029 60 157 0.0 1.0 0.00 0.00 0.00 58 1021.9
20260509011531 60 169 0.0 4.0 0.00 0.00 0.00 58 1022.1
20260509010036 60 139 0.0 4.0 0.00 0.00 0.00 56 1022.0
20260509004527 60 259 0.0 4.0 0.00 0.00 0.00 56 1022.0
20260509003028 60 266 0.0 5.0 0.00 0.00 0.00 57 1021.9
20260509001528 60 153 1.0 8.0 0.00 0.00 0.00 53 1022.1
20260509000020 60 204 0.0 4.0 0.00 0.00 0.00 56 1021.9
20260508234525 60 213 0.0 9.0 0.00 0.00 0.00 56 1022.1
20260508233026 61 235 1.0 6.0 0.00 0.00 0.00 56 1022.1
20260508231528 60 151 3.0 8.0 0.00 0.00 0.00 57 1022.1
20260508230038 60 100 0.0 8.0 0.00 0.00 0.00 58 1022.0
20260508224528 59 136 3.0 8.0 0.00 0.00 0.00 59 1022.1
20260508223025 58 281 1.0 3.0 0.00 0.00 0.00 60 1022.1
20260508221539 59 155 1.0 9.0 0.00 0.00 0.00 58 1022.2
20260508220029 60 209 3.0 8.0 0.00 0.00 0.00 56 1022.1
20260508214528 59 169 1.0 9.0 0.00 0.00 0.00 60 1022.1
20260508213025 58 15 1.0 5.0 0.00 0.00 0.00 62 1021.9
20260508211526 57 247 2.0 12.0 0.00 0.00 0.00 62 1022.1
20260508210026 57 248 5.0 12.0 0.00 0.00 0.00 60 1022.1
20260508204528 56 141 3.0 9.0 0.00 0.00 0.00 65 1022.1
20260508203027 56 239 0.0 8.0 0.00 0.00 0.00 67 1022.0
20260508201522 56 149 1.0 10.0 0.00 0.00 0.00 71 1021.9
20260508200006 55 277 0.0 6.0 0.00 0.00 0.00 70 1021.8
20260508194512 54 316 0.0 8.0 0.00 0.00 0.00 71 1021.7
20260508193017 54 270 0.0 6.0 0.00 0.00 0.00 73 1021.8
20260508191523 53 211 1.0 8.0 0.00 0.00 0.00 74 1021.7
20260508190028 53 150 1.0 6.0 0.00 0.00 0.00 74 1021.7
20260508184508 53 189 0.0 4.0 0.00 0.00 0.00 76 1021.6
20260508183016 54 235 1.0 5.0 0.00 0.00 0.00 76 1021.4
20260508181520 53 173 2.0 7.0 0.00 0.00 0.00 76 1021.4
20260508180026 52 250 2.0 7.0 0.00 0.00 0.00 77 1021.2
20260508174535 53 79 2.0 9.0 0.00 0.00 0.00 76 1020.9
20260508173010 53 116 1.0 7.0 0.00 0.00 0.00 76 1020.5
20260508171518 52 325 0.0 2.0 0.00 0.00 0.00 80 1020.3
20260508170020 52 279 0.0 4.0 0.00 0.00 0.00 79 1020.3
20260508164529 52 145 0.0 4.0 0.00 0.00 0.00 80 1020.2
20260508163027 51 287 0.0 3.0 0.00 0.00 0.00 81 1020.0
20260508161519 51 146 2.0 7.0 0.00 0.00 0.00 80 1020.1
20260508160024 50 167 1.0 9.0 0.00 0.00 0.00 81 1020.3
20260508154528 51 193 0.0 10.0 0.00 0.00 0.00 83 1020.2
20260508153024 50 307 1.0 9.0 0.00 0.00 0.00 84 1020.2
20260508151530 50 28 0.0 10.0 0.00 0.00 0.00 86 1020.1
20260508150016 50 150 0.0 5.0 0.00 0.00 0.00 88 1019.9
20260508144521 49 246 0.0 5.0 0.00 0.00 0.00 89 1019.7
20260508143022 49 169 0.0 8.0 0.00 0.00 0.00 92 1019.2
20260508141528 47 148 0.0 2.0 0.00 0.00 0.00 93 1019.1
20260508140014 46 57 0.0 0.0 0.00 0.00 0.00 93 1018.6
20260508134517 46 57 0.0 0.0 0.00 0.00 0.00 93 1018.5
20260508133026 45 57 0.0 0.0 0.00 0.00 0.00 92 1018.3
20260508131523 45 57 0.0 0.0 0.00 0.00 0.00 92 1018.1
20260508130008 44 57 0.0 0.0 0.00 0.00 0.00 92 1018.0